Weather History for KHON - February, 2013

Change the Weather History Date:

Saturday, February 23, 2013

  Actual Average Record
Temperature  
Mean Temperature 12 °F 24 °F  
Max Temperature 24 °F 34 °F 68 °F (1958)
Min Temperature -1 °F 14 °F -30 °F (1965)
Degree Days  
Heating Degree Days 53 41  
Month to date heating degree days 1032 1018  
Since 1 July heating degree days 5599 5635  
Cooling Degree Days 0 0  
Month to date cooling degree days 0 0  
Year to date cooling degree days 0 0  
Moisture  
Dew Point 7 °F    
Average Humidity 83    
Maximum Humidity 95    
Minimum Humidity 71    
Precipitation  
Precipitation 0.00 in 0.03 in 1.46 in (1977)
Month to date precipitation 1.10 0.47  
Year to date precipitation 1.38 0.97  
Snow  
Snow 0.00 in 0.30 in 8.10 in (2012)
Month to date snowfall 13.8 6.0  
Since 1 July snowfall 33.2 29.6  
Snow Depth 9.00 in    
Sea Level Pressure  
Sea Level Pressure 29.91 in    
Wind  
Wind Speed 5 mph (SE)    
Max Wind Speed 12 mph    
Max Gust Speed 14 mph    
Visibility 8 miles    
Events      
T = Trace of Precipitation, MM = Missing Value Source: NWS Daily Summary

Daily Weather History Graph

Daily Weather History Graph

Search for Another Location

Airport or City:

Trip Planner

Search our weather history database for the weather conditions in past years. The results will help you decide how hot, cold, wet, or windy it might be!

Date:

Astronomy

Feb. 23, 2013 Rise Set
Actual Time 7:19 AM CST 6:13 PM CST
Civil Twilight 6:50 AM CST 6:42 PM CST
Nautical Twilight 6:16 AM CST 7:16 PM CST
Astronomical Twilight 5:43 AM CST 7:50 PM CST
Moon 4:22 PM CST (2/23) 5:46 AM CST (2/23)
Length of Visible Light 11h 52m
Length of Day
10h 53m
Waxing Gibbous, 95% of the Moon is Illuminated
Feb 23
Waxing Gibbous
Feb 25
Full
Mar 4
Last Quarter
Mar 11
New
Mar 19
First Quarter

Hourly Weather History & Observations

Time (CST) Temp. Windchill Dew Point Humidity Pressure Visibility Wind Dir Wind Speed Gust Speed Precip Events Conditions
12:55 AM 3.0 °F -4.4 °F 1.9 °F 95% 29.98 in 9.0 mi SSE 3.5 mph - N/A   Clear
1:55 AM 7.0 °F - 3.9 °F 87% 29.96 in 9.0 mi Calm Calm - N/A   Clear
2:55 AM 5.0 °F -2.1 °F 1.9 °F 87% 29.94 in 10.0 mi SE 3.5 mph - N/A   Clear
3:55 AM 3.0 °F - -0.0 °F 87% 29.93 in 9.0 mi Calm Calm - N/A   Clear
4:55 AM -0.0 °F -11.6 °F -2.9 °F 88% 29.93 in 8.0 mi ESE 5.8 mph - N/A   Clear
5:18 AM -0.4 °F -12.0 °F -2.2 °F 92% 29.84 in 6.0 mi ESE 5.8 mph - N/A   Scattered Clouds
5:29 AM -0.4 °F -10.4 °F -2.2 °F 92% 29.84 in 5.0 mi SE 4.6 mph - N/A   Mostly Cloudy
5:55 AM -0.0 °F -7.9 °F -2.0 °F 91% 29.93 in 4.0 mi SSE 3.5 mph - N/A   Overcast
6:55 AM 1.0 °F -8.7 °F -0.9 °F 91% 29.92 in 6.0 mi SE 4.6 mph - N/A   Mostly Cloudy
7:55 AM 3.9 °F -6.9 °F 1.0 °F 88% 29.91 in 5.0 mi South 5.8 mph - N/A   Partly Cloudy
8:55 AM 6.1 °F -5.6 °F 3.0 °F 87% 29.92 in 5.0 mi SSE 6.9 mph - N/A   Partly Cloudy
9:55 AM 9.0 °F -0.9 °F 6.1 °F 88% 29.91 in 7.0 mi SE 5.8 mph - N/A   Clear
10:55 AM 12.9 °F 5.2 °F 10.0 °F 88% 29.91 in 10.0 mi SSE 4.6 mph - N/A   Clear
11:55 AM 15.1 °F 5.2 °F 10.9 °F 84% 29.90 in 10.0 mi SE 6.9 mph - N/A   Clear
12:55 PM 18.0 °F 7.7 °F 12.9 °F 81% 29.89 in 10.0 mi SE 8.1 mph - N/A   Clear
1:55 PM 21.0 °F 11.4 °F 14.0 °F 74% 29.88 in 10.0 mi SSE 8.1 mph - N/A   Clear
2:55 PM 21.9 °F 12.5 °F 15.1 °F 75% 29.86 in 10.0 mi SE 8.1 mph - N/A   Clear
3:55 PM 23.0 °F 15.8 °F 17.1 °F 78% 29.85 in 10.0 mi ESE 5.8 mph - N/A   Clear
4:55 PM 23.0 °F 15.8 °F 17.1 °F 78% 29.87 in 10.0 mi ESE 5.8 mph - N/A   Clear
5:55 PM 19.9 °F 12.1 °F 15.1 °F 81% 29.88 in 10.0 mi ESE 5.8 mph - N/A   Clear
6:55 PM 16.0 °F 7.4 °F 12.9 °F 88% 29.90 in 10.0 mi East 5.8 mph - N/A   Clear
7:55 PM 12.9 °F 6.9 °F 10.0 °F 88% 29.92 in 10.0 mi SE 3.5 mph - N/A   Clear
8:55 PM 10.0 °F 1.8 °F 8.1 °F 92% 29.93 in 8.0 mi ESE 4.6 mph - N/A   Clear
9:55 PM 9.0 °F - 7.0 °F 92% 29.95 in 8.0 mi Calm Calm - N/A   Clear
10:55 PM 6.1 °F -4.3 °F 3.9 °F 91% 29.94 in 8.0 mi East 5.8 mph - N/A   Clear
11:55 PM 8.1 °F 1.4 °F 3.9 °F 83% 29.95 in 9.0 mi East 3.5 mph - N/A   Clear